New Bedford, MA

2:52 AM EDT on March 25, 2017 (GMT -0400)
New Bedford Regional

Weather History for KEWB - November, 2012

Change the Weather History Date:

Sunday, November 4, 2012

  Actual Average Record
Temperature  
Mean Temperature 46 °F -  
Max Temperature 55 °F 59 °F 79 °F (1975)
Min Temperature 37 °F 45 °F 25 °F (1998)
Degree Days  
Heating Degree Days 20    
Moisture  
Dew Point 32 °F    
Average Humidity 63    
Maximum Humidity 76    
Minimum Humidity 50    
Precipitation  
Precipitation 0.00 in - - ()
Sea Level Pressure  
Sea Level Pressure 29.86 in    
Wind  
Wind Speed 7 mph (WNW)    
Max Wind Speed 9 mph    
Max Gust Speed -    
Visibility 10 miles    
Events      
Averages and records for this station are not official NWS values.
T = Trace of Precipitation, MM = Missing Value Source: NWS Daily Summary

Daily Weather History Graph

Daily Weather History Graph

Search for Another Location

Airport or City:

Trip Planner

Search our weather history database for the weather conditions in past years. The results will help you decide how hot, cold, wet, or windy it might be!

Date:

Astronomy

Nov. 04, 2012 Rise Set
Actual Time 6:20 AM EST 4:34 PM EST
Civil Twilight 5:50 AM EST 5:03 PM EST
Nautical Twilight 5:17 AM EST 5:36 PM EST
Astronomical Twilight 4:45 AM EST 6:08 PM EST
Moon 9:08 PM EST (11/4) 11:02 AM EST (11/4)
Length of Visible Light 11h 12m
Length of Day
10h 14m
Waning Gibbous, 72% of the Moon is Illuminated
Nov 4
Waning Gibbous
Nov 6
Last Quarter
Nov 13
New
Nov 20
First Quarter
Nov 28
Full

Hourly Weather History & Observations

Time (EST) Temp. Windchill Dew Point Humidity Pressure Visibility Wind Dir Wind Speed Gust Speed Precip Events Conditions
12:53 AM 41.0 °F 35.8 °F 30.0 °F 65% 29.81 in 10.0 mi WNW 8.1 mph - N/A   Clear
1:53 AM 39.9 °F 34.5 °F 30.0 °F 68% 29.81 in 10.0 mi WNW 8.1 mph - N/A   Clear
1:53 AM 39.9 °F 33.9 °F 30.0 °F 68% 29.81 in 10.0 mi West 9.2 mph - N/A   Clear
2:53 AM 39.0 °F 33.4 °F 30.0 °F 70% 29.82 in 10.0 mi West 8.1 mph - N/A   Clear
3:53 AM 39.0 °F 33.4 °F 30.0 °F 70% 29.82 in 10.0 mi West 8.1 mph - N/A   Clear
4:53 AM 37.9 °F 32.1 °F 30.0 °F 73% 29.83 in 10.0 mi West 8.1 mph - N/A   Clear
5:53 AM 37.0 °F 31.6 °F 30.0 °F 76% 29.85 in 10.0 mi West 6.9 mph - N/A   Clear
6:53 AM 37.9 °F 32.1 °F 30.9 °F 76% 29.87 in 10.0 mi West 8.1 mph - N/A   Clear
7:53 AM 42.1 °F 37.1 °F 32.0 °F 67% 29.88 in 10.0 mi WNW 8.1 mph - N/A   Clear
8:53 AM 45.0 °F 40.6 °F 33.1 °F 63% 29.88 in 10.0 mi NW 8.1 mph - N/A   Clear
9:53 AM 48.9 °F - 34.0 °F 56% 29.88 in 10.0 mi NNW 6.9 mph - N/A   Clear
10:53 AM 51.1 °F - 35.1 °F 54% 29.86 in 10.0 mi Variable 4.6 mph - N/A   Clear
11:53 AM 52.0 °F - 35.1 °F 53% 29.86 in 10.0 mi West 5.8 mph - N/A   Clear
12:53 PM 53.1 °F - 35.1 °F 50% 29.85 in 10.0 mi SW 5.8 mph - N/A   Clear
1:53 PM 54.0 °F - 36.0 °F 51% 29.84 in 10.0 mi West 8.1 mph - N/A   Scattered Clouds
2:53 PM 53.1 °F - 36.0 °F 52% 29.85 in 10.0 mi WSW 4.6 mph - N/A   Mostly Cloudy
3:53 PM 53.1 °F - 35.1 °F 50% 29.85 in 10.0 mi West 5.8 mph - N/A   Overcast
4:53 PM 52.0 °F - 35.1 °F 53% 29.86 in 10.0 mi Calm Calm - N/A   Overcast
5:53 PM 48.9 °F - 34.0 °F 56% 29.88 in 10.0 mi North 4.6 mph - N/A   Overcast
6:53 PM 46.0 °F 43.9 °F 33.1 °F 61% 29.91 in 10.0 mi Variable 4.6 mph - N/A   Overcast
7:53 PM 42.1 °F 40.2 °F 30.9 °F 65% 29.93 in 10.0 mi NNW 3.5 mph - N/A   Scattered Clouds
8:53 PM 39.9 °F - 30.9 °F 70% 29.93 in 10.0 mi Calm Calm - N/A   Scattered Clouds
9:53 PM 39.0 °F 36.8 °F 30.0 °F 70% 29.93 in 10.0 mi NW 3.5 mph - N/A   Clear
10:53 PM 37.0 °F - 30.0 °F 76% 29.92 in 10.0 mi Calm Calm - N/A   Clear